Location: Newark
(33.6333°S, 78.8500°W)
Time: 10:46:48
(UTC+00:00)

Courier 1B - Pass Details

Date: 22 September 2019
Orbit: 962 x 1209 km, 28.3° (Epoch: 18 October)

Event Time Altitude Azimuth Distance (km) Brightness Sun altitude
Rises 04:08:17 0° 272° (W) 3,817 - -53.9°
Reaches altitude 10° 04:11:45 10° 287° (WNW) 2,816 - -54.3°
Maximum altitude 04:16:39 21° 333° (NNW) 2,064 - -54.7°
Drops below altitude 10° 04:21:23 10° 20° (NNE) 2,712 - -55.0°
Sets 04:24:40 0° 36° (NE) 3,637 - -55.3°
